Location: Akdamlar
(36.8729°N, 30.5187°E)
Time: 14:50:17
(UTC+00:00)

NOSS 2-2 (C) - Pass Details

Date: 18 September 2020
Orbit: 468 x 1740 km, 63.3° (Epoch: 19 October)

Event Time Altitude Azimuth Distance (km) Brightness Sun altitude
Rises 16:24:25 0° 194° (SSW) 2,599 6.9 -5.6°
Reaches altitude 10° 16:26:42 10° 186° (S) 1,654 5.8 -6.1°
Maximum altitude 16:29:59 37° 117° (ESE) 749 3.6 -6.7°
Drops below altitude 10° 16:33:17 10° 49° (NE) 1,661 5.4 -7.4°
Sets 16:35:35 0° 41° (NE) 2,613 6.5 -7.8°
